Home   Weather   Denton   Past weeks
Flag for USA

Past Weather in Denton, Texas, USA — Yesterday and Last 2 Weeks

Now
88 °F

Hot.


Feels Like: 94 °F
Forecast: 87 / 75 °F
Wind: 8 mph from South

Location: Denton - MADIS Station

Current Time: May 24, 2019 at 4:39:35 pm

Latest Report: May 24, 2019 at 3:45 pm


Visibility: N/A

Pressure: 29.28 "Hg

Humidity: 58%

Dew Point: 71 °F

Location of DentonLocation

Past Weather in Denton — Graph

°F

Denton Temperature Yesterday

Maximum temperature yesterday: 89 °F (at 4:20 pm)
Minimum temperature yesterday: 77 °F (at 5:50 am)
Average temperature yesterday: 83 °F

High & Low Weather Summary for the Past Weeks

 TemperatureHumidityPressure
High89 °F (May 22, 5:40 pm)95% (May 11, 3:30 am)29.46 "Hg (May 11, 3:30 am)
Low50 °F (May 10, 3:35 am)28% (May 21, 5:30 pm)28.86 "Hg (May 21, 2:15 am)
Average72 °F72%29.20 "Hg
* Reported May 9 3:15 pm — May 24 3:35 pm, Denton. Weather by CustomWeather, © 2019

Note: Actual official high and low records may vary slightly from our data, if they occured in-between our weather recording intervals... More about our weather records

Advertising

Denton Weather History for the Previous 24 Hours

Scroll right to see more
 ConditionsComfort  
Time TempWeatherWind HumidityBarometerVisibility
3:35 pm
Fri, May 24
88 °FHot.8 mph57%29.28 "HgN/A
3:15 pm88 °FHot.6 mph58%29.29 "HgN/A
2:20 pm88 °FHot.6 mph58%29.30 "HgN/A
1:20 pm87 °FWarm.7 mph62%29.32 "HgN/A
1:05 pm87 °FWarm.7 mph62%29.33 "HgN/A
12:50 pm86 °FWarm.7 mph64%29.34 "HgN/A
12:35 pm86 °FWarm.8 mph64%29.34 "HgN/A
12:15 pm85 °FWarm.6 mph65%29.35 "HgN/A
11:45 am84 °FWarm.7 mph68%29.35 "HgN/A
10:15 am81 °FWarm.6 mph74%29.36 "HgN/A
9:30 am79 °FWarm.5 mph78%29.37 "HgN/A
9:15 am79 °FWarm.5 mph78%29.36 "HgN/A
8:20 am77 °FWarm.3 mph81%29.35 "HgN/A
8:15 am77 °FWarm.3 mph81%29.35 "HgN/A
7:35 am77 °FWarm.3 mph81%29.35 "HgN/A
6:35 am77 °FWarm.4 mph80%29.31 "HgN/A
6:15 am77 °FWarm.4 mph80%29.30 "HgN/A
5:30 am77 °FWarm.5 mph79%29.28 "HgN/A
4:35 am78 °FWarm.6 mph78%29.28 "HgN/A
4:30 am78 °FWarm.5 mph78%29.28 "HgN/A
4:20 am78 °FWarm.6 mph78%29.28 "HgN/A
3:45 am79 °FWarm.6 mph78%29.27 "HgN/A
3:35 am79 °FWarm.6 mph77%29.26 "HgN/A
3:15 am79 °FWarm.7 mph77%29.26 "HgN/A
2:30 am80 °FWarm.7 mph77%29.26 "HgN/A
2:15 am80 °FWarm.7 mph77%29.27 "HgN/A
1:30 am80 °FWarm.7 mph77%29.26 "HgN/A
1:05 am80 °FWarm.6 mph77%29.26 "HgN/A
12:50 am80 °FWarm.6 mph77%29.26 "HgN/A
12:30 am81 °FWarm.8 mph77%29.27 "HgN/A
12:15 am81 °FWarm.7 mph77%29.26 "HgN/A
11:30 pm
Thu, May 23
82 °FWarm.7 mph75%29.27 "HgN/A
11:15 pm82 °FWarm.8 mph74%29.27 "HgN/A
10:45 pm82 °FWarm.5 mph72%29.26 "HgN/A
10:15 pm83 °FWarm.5 mph70%29.25 "HgN/A
9:50 pm83 °FWarm.5 mph69%29.24 "HgN/A
9:15 pm83 °FWarm.6 mph68%29.23 "HgN/A
8:45 pm84 °FWarm.4 mph67%29.23 "HgN/A
8:20 pm84 °FWarm.4 mph66%29.22 "HgN/A
7:35 pm86 °FWarm.5 mph63%29.22 "HgN/A
7:05 pm87 °FWarm.4 mph62%29.22 "HgN/A
6:45 pm87 °FWarm.4 mph61%29.22 "HgN/A
6:30 pm88 °FHot.5 mph61%29.23 "HgN/A
6:05 pm88 °FHot.4 mph62%29.24 "HgN/A
5:45 pm88 °FHot.4 mph61%29.24 "HgN/A
5:30 pm88 °FHot.5 mph61%29.24 "HgN/A
5:15 pm88 °FHot.4 mph61%29.24 "HgN/A
4:30 pm88 °FHot.6 mph59%29.25 "HgN/A
4:20 pm89 °FHot.5 mph60%29.26 "HgN/A
4:00 pm88 °FHot.8 mph57%29.26 "HgN/A
Weather by CustomWeather, © 2019

See weather overview